Location: Newark
(49.9828°N, 3.1606°E)
Time: 02:36:55
(UTC+00:00)

Envisat - Pass Details

Date: 26 January 2020
Orbit: 764 x 766 km, 98.1° (Epoch: 25 February)

Event Time Altitude Azimuth Distance (km) Brightness Sun altitude
Rises 18:31:52 0° 198° (SSW) 3,222 6.6 -19.3°
Reaches altitude 10° 18:34:31 10° 211° (SSW) 2,301 6.0 -19.7°
Maximum altitude 18:38:44 26° 268° (W) 1,484 5.3 -20.4°
Drops below altitude 10° 18:42:58 10° 324° (NW) 2,315 5.9 -21.1°
Sets 18:45:39 0° 337° (NNW) 3,246 6.5 -21.5°
